Probability
0 0 0 0 0 0 0 0 0 0 0 0 0 0 0 0 0 0 0 0 0 0 0 0 0 0 0 0 0 0 0 1 3 4 2 1 1 1 2 3 3 3 3 3 2 2 1 1 1
0 0 0 0 0 0 0 0 0 0 0 0 0 0 0 0 0 0 0 0 0 0 0 0 0 0 0 0 0 0 0 1 4 4 3 2 2 3 2 3 3 3 3 3 2 2 2 1 1
0 0 0 0 0 0 0 0 0 0 0 0 0 0 0 0 0 0 0 0 0 0 1 1 0 0 1 1 1 0 0 1 3 4 3 3 3 4 3 3 2 2 3 3 1 2 2 1 0
0 0 0 0 0 0 0 0 0 0 0 0 0 0 0 0 0 0 0 0 0 1 2 2 1 1 1 2 1 1 0 1 3 4 3 3 3 3 3 2 2 3 4 2 1 1 1 1 0
0 0 0 0 0 0 0 0 0 0 0 0 0 0 0 0 0 0 0 0 1 2 2 2 2 2 1 1 1 1 1 1 2 2 2 2 2 2 2 1 2 2 2 1 0 1 1 0 0
0 0 0 0 0 0 0 0 0 0 0 0 0 0 0 0 0 0 0 0 1 1 1 1 2 1 0 0 0 0 0 0 1 1 0 1 1 0 1 1 1 1 1 0 0 1 2 1 0
0 0 0 0 0 0 0 0 0 0 0 0 0 0 0 0 0 0 0 0 0 0 0 0 0 0 0 0 0 0 0 0 0 0 0 0 0 0 0 1 2 1 0 0 0 1 2 2 1
0 0 0 0 0 0 0 0 0 0 0 0 0 0 0 0 0 0 0 0 0 0 0 0 0 0 0 0 0 0 0 0 0 0 0 0 0 0 0 1 1 1 0 0 0 0 1 2 2
0 0 0 0 0 0 0 0 0 0 0 0 0 0 0 0 0 0 0 0 0 0 0 0 0 0 0 0 0 0 0 0 0 0 0 0 0 0 0 0 0 0 0 0 0 0 0 2 3
0 0 0 0 0 0 0 0 0 0 0 0 0 0 0 0 0 0 0 0 0 0 0 0 0 0 0 0 0 0 0 0 0 0 0 0 0 0 0 0 0 0 0 0 0 0 1 2 3
0 0 0 0 0 0 0 0 0 0 0 0 0 0 0 0 0 0 0 0 0 0 0 0 0 0 0 0 0 0 0 0 0 0 0 0 0 0 0 0 0 0 1 1 1 1 2 3 3
0 0 0 0 0 0 0 0 0 0 0 0 0 0 0 0 0 0 0 0 0 0 0 0 0 0 0 0 0 0 0 0 0 0 0 0 0 0 0 0 1 1 2 2 2 2 3 2 1
0 0 0 0 0 0 0 0 0 0 0 0 0 0 0 0 0 0 0 0 0 0 0 0 0 0 0 0 0 0 0 0 0 0 0 0 0 0 0 0 1 2 3 2 2 2 2 1 0
0 0 0 0 0 0 0 0 0 0 0 0 0 0 0 0 0 0 0 0 0 0 0 0 0 0 0 1 0 0 0 0 0 0 0 0 0 0 0 0 1 3 3 2 1 1 1 0 0
0 0 0 0 0 0 0 0 0 0 0 0 0 0 0 0 0 0 0 0 0 0 0 0 0 0 0 0 0 0 0 0 0 0 0 0 0 0 0 0 1 2 3 3 2 1 0 0 0
0 0 0 0 0 0 0 0 0 0 0 0 0 0 0 0 0 0 0 0 0 0 0 0 0 0 0 0 0 0 0 0 0 0 0 0 0 0 0 0 0 1 2 3 2 1 0 0 0
0 0 0 0 0 0 0 0 0 0 0 0 0 0 0 0 0 0 0 0 0 0 0 0 0 0 0 1 1 1 1 0 0 0 0 0 0 0 0 0 0 0 1 2 1 0 0 0 0
0 0 0 0 0 0 0 0 0 0 0 0 0 0 0 0 0 0 0 0 0 0 0 0 0 0 1 2 2 2 1 0 0 0 0 0 0 0 0 0 0 0 0 0 0 0 0 0 0
0 0 0 0 0 0 0 0 0 0 0 0 0 0 0 0 0 0 0 0 0 0 0 0 0 0 2 3 3 1 0 0 0 0 0 0 0 0 0 0 0 0 0 0 0 0 0 0 0
0 0 0 0 0 0 0 0 0 0 0 0 0 0 0 0 0 0 0 0 0 0 0 0 0 1 2 3 2 1 0 0 0 0 0 0 0 0 0 0 0 0 0 0 0 0 0 0 0
0 0 0 0 0 0 0 0 0 0 0 0 0 0 0 0 0 0 0 0 0 0 0 0 1 2 2 2 1 0 0 0 0 0 0 0 0 0 0 0 0 0 0 0 0 0 0 0 0
0 0 0 0 0 0 0 0 0 0 0 0 0 0 0 0 0 0 0 0 0 1 1 0 1 2 2 1 0 0 0 0 0 0 0 0 0 0 0 0 0 0 0 0 0 0 0 0 0
0 0 0 0 0 0 0 0 0 0 0 0 0 0 0 0 0 0 0 0 1 2 3 2 1 1 1 1 0 0 0 0 0 0 0 0 0 0 0 0 0 0 0 0 0 0 0 0 0
0 0 0 0 0 0 0 0 0 0 0 0 0 0 0 0 0 0 0 0 2 4 6 5 3 1 1 0 0 0 0 0 0 0 0 0 0 0 0 0 0 0 0 0 0 0 0 0 0
0 0 0 0 0 0 0 0 0 0 0 0 0 0 0 0 1 1 0 1 3 5 6 6 5 2 0 0 0 0 0 0 0 0 0 0 0 0 0 0 0 0 0 0 0 0 0 0 0
0 0 0 0 0 0 0 0 0 0 0 0 0 1 1 1 2 2 1 2 3 5 5 5 4 2 1 0 0 0 0 0 0 0 0 0 0 0 0 0 0 0 0 0 0 0 0 0 0
0 0 0 0 0 0 0 0 0 0 0 0 1 2 2 3 3 3 2 2 2 3 3 3 3 2 2 1 0 0 0 0 0 0 0 0 0 0 0 0 0 0 0 0 0 0 0 0 0
0 0 0 0 0 0 0 0 0 0 0 1 2 3 3 3 3 2 3 3 2 1 2 2 3 2 2 2 1 1 1 0 0 0 0 0 0 0 0 0 0 0 0 0 0 0 0 0 0
0 0 0 0 0 0 0 0 0 0 0 1 2 2 2 2 2 2 2 3 3 3 3 3 3 2 2 3 3 2 2 1 1 1 0 0 0 0 0 0 0 0 0 0 0 0 0 0 0
0 0 0 0 0 0 0 0 0 0 0 0 1 1 1 1 1 1 2 3 3 4 4 4 3 2 2 3 3 3 3 2 2 2 1 0 0 0 0 0 0 0 0 0 0 0 0 0 0
Wind_Speed
2 2 2 3 3 3 6 5 4 4 4 5 5 4 6 7 6 6 4 3 4 4 4 4 6 6 7 8 8 9 10 10 10 10 11 11 10 10 9 9 9 9 10 10 10 10 10 10 10
1 1 2 2 1 5 6 4 5 5 5 5 5 4 5 7 6 5 4 3 3 4 4 6 6 6 7 7 9 10 10 10 10 11 11 11 11 10 10 10 10 10 10 10 10 10 10 10 11
1 2 1 0 2 4 6 6 6 6 5 2 4 4 5 5 4 4 4 3 3 5 5 7 6 7 7 8 9 10 11 11 11 11 11 11 11 10 10 11 10 10 10 10 10 10 10 10 10
2 1 1 3 8 7 6 6 5 6 5 3 3 6 6 5 4 5 5 4 5 5 5 7 7 8 8 9 10 11 11 11 11 11 11 11 11 11 11 11 11 11 10 10 10 10 10 10 10
1 1 4 6 8 6 5 5 4 5 4 4 3 6 7 6 6 6 5 4 5 6 6 7 8 8 8 9 10 11 11 12 12 12 12 12 12 11 11 11 11 11 11 11 11 11 11 11 11
1 1 4 7 8 6 6 4 4 5 6 5 4 6 7 6 6 5 5 4 5 5 5 7 8 8 9 9 10 11 11 12 12 12 12 12 12 12 12 11 12 12 11 11 11 11 11 11 10
1 2 5 7 7 6 5 4 3 4 5 4 2 5 6 6 5 5 5 5 5 5 5 5 6 7 8 9 10 10 11 12 12 12 12 12 12 12 11 11 11 11 11 11 11 11 11 10 10
1 3 6 6 6 6 5 4 3 3 5 4 1 3 5 6 5 5 5 5 5 5 5 5 6 6 6 7 10 10 11 11 11 11 11 10 10 11 10 11 11 11 11 11 11 11 10 10 10
1 3 5 5 5 6 5 5 4 3 5 4 3 5 6 8 7 6 6 5 5 5 4 5 5 6 6 6 7 7 8 8 7 8 8 5 6 7 7 12 12 12 12 11 11 11 10 9 10
1 3 5 4 4 6 6 4 4 5 5 5 6 6 8 8 7 6 5 5 5 5 5 4 5 5 5 5 4 4 4 5 5 5 5 5 6 6 7 11 12 12 11 11 11 9 7 4 5
2 4 5 4 4 5 6 4 2 3 3 3 5 7 8 7 6 5 4 4 4 4 4 4 4 4 4 3 3 3 3 3 4 5 6 5 5 4 5 5 6 7 6 7 7 5 5 6 5
4 4 3 4 4 4 4 4 3 1 3 4 5 8 8 7 6 5 4 4 4 4 3 3 3 3 3 3 3 3 3 3 3 4 5 4 4 4 5 4 5 4 4 5 5 4 6 7 7
5 5 4 4 5 4 5 4 3 3 3 5 7 8 7 6 5 4 3 3 3 3 3 3 2 2 3 3 2 3 3 3 4 3 4 5 4 4 5 5 4 5 4 5 4 5 6 6 7
5 6 5 5 5 4 5 4 3 3 5 6 7 6 6 5 4 4 3 2 3 3 3 3 3 2 2 2 2 3 3 3 3 3 4 5 4 4 4 5 5 5 5 5 5 6 5 5 5
6 6 5 3 3 3 4 3 3 5 5 6 6 5 5 4 3 3 3 2 3 3 3 3 2 2 2 2 3 3 2 3 3 3 3 5 5 4 4 4 4 4 4 5 5 6 5 5 5
5 5 4 4 3 3 5 3 4 5 6 6 5 5 4 3 3 2 2 2 2 3 3 4 3 3 3 2 2 2 2 3 3 3 3 4 4 5 4 3 4 4 3 3 4 4 4 4 4
6 5 4 4 3 4 5 3 5 6 6 6 5 5 5 4 3 2 2 2 2 3 4 4 4 3 3 3 3 2 3 3 2 2 3 3 4 4 4 3 3 3 3 3 4 4 4 4 4
5 5 4 4 4 5 6 4 4 6 6 6 5 5 5 4 3 3 2 1 1 2 4 4 4 4 4 3 3 3 2 2 2 2 2 3 3 3 3 2 3 3 2 3 3 4 3 3 3
4 5 4 3 3 5 6 5 4 6 7 6 6 5 5 4 4 3 2 2 2 3 4 4 5 5 4 3 3 2 2 2 2 2 2 3 2 3 3 2 2 2 2 2 3 3 4 3 2
6 6 4 3 3 4 4 5 4 5 7 7 6 6 5 5 4 4 3 3 3 3 4 5 5 5 5 3 2 2 2 2 2 2 2 2 2 2 2 1 2 2 2 2 2 2 1 2 1
7 6 4 3 3 4 4 5 6 6 6 5 6 6 5 5 5 5 4 4 3 3 4 4 5 5 5 5 3 3 2 2 2 2 2 1 1 1 1 1 1 1 1 1 1 1 1 1 1
6 4 4 4 5 3 5 4 5 6 6 6 6 6 6 6 5 5 4 4 4 4 4 5 5 5 6 6 4 4 3 3 2 2 2 2 1 1 1 1 1 1 1 1 1 1 0 0 0
3 3 5 5 6 6 6 6 3 5 6 6 6 7 6 6 5 5 5 5 4 4 4 4 5 5 5 6 5 5 4 2 2 2 2 2 2 1 1 1 1 1 1 1 1 0 0 0 1
5 5 5 5 6 7 5 7 3 3 4 3 4 6 7 6 6 5 5 5 4 4 4 4 4 4 4 5 6 5 5 4 3 3 2 2 1 1 1 1 1 1 1 1 1 0 0 1 1
7 7 5 6 6 4 3 6 3 1 1 2 2 4 6 6 6 5 5 5 5 5 5 5 5 5 5 5 5 5 5 4 4 3 3 3 2 2 2 2 2 1 1 1 1 1 1 1 0
8 8 6 5 4 2 4 6 1 2 1 1 2 2 4 5 5 5 5 5 5 6 6 6 6 5 5 5 5 5 5 3 3 3 3 3 2 2 2 2 2 2 2 2 2 1 1 1 1
8 7 5 6 5 6 5 4 3 2 1 1 0 1 3 4 4 4 5 5 5 6 6 6 6 6 6 5 5 5 5 4 4 4 3 3 3 2 3 3 3 3 3 2 3 2 2 1 1
5 5 5 6 5 6 5 6 3 2 2 1 1 1 1 2 3 4 5 5 5 5 5 6 6 6 6 5 5 4 5 5 4 4 4 4 4 3 3 4 3 3 3 3 3 3 2 2 1
7 8 7 6 6 6 5 2 2 1 1 1 0 0 1 2 3 4 4 5 4 4 5 5 6 5 5 5 5 5 5 5 5 4 4 4 4 4 4 4 4 3 3 3 3 3 3 3 2
7 8 9 8 7 7 7 2 4 1 0 0 1 1 0 1 2 3 4 4 4 4 4 5 5 5 5 5 5 6 5 5 5 4 4 4 5 5 5 4 4 4 4 4 4 4 4 3 3
Wind_Direction
201 225 229 217 203 114 87 84 95 104 84 69 63 62 63 45 27 58 65 45 32 40 48 65 46 44 49 53 60 61 59 59 60 61 64 77 84 87 89 89 91 90 89 89 92 91 90 92 92
206 220 231 236 197 119 95 91 94 82 102 111 89 81 75 68 52 77 84 54 49 52 50 55 54 53 55 60 64 63 59 59 60 61 65 71 76 79 84 85 88 88 87 87 89 90 89 89 89
157 258 299 104 90 86 102 100 96 99 103 116 97 65 55 65 69 76 76 85 76 63 55 64 54 59 70 68 64 63 61 60 61 61 65 68 72 76 79 80 81 83 84 85 87 87 87 87 88
230 198 127 99 94 75 91 109 120 124 107 86 104 93 81 60 61 79 92 91 84 76 65 69 59 64 70 70 68 65 63 62 62 63 66 68 71 74 78 81 80 80 80 82 85 87 88 87 87
243 205 127 111 96 92 94 100 124 114 99 93 98 94 92 78 81 94 96 91 83 80 76 75 65 66 70 70 72 67 64 65 63 62 64 65 69 71 74 78 80 80 81 82 83 84 84 83 82
172 186 140 118 108 104 102 106 120 107 101 100 103 101 93 95 97 96 97 90 79 78 77 84 82 71 68 68 68 67 67 66 64 63 61 61 63 66 70 74 76 75 76 77 80 83 82 79 76
119 127 118 122 121 116 105 119 121 112 104 94 99 101 108 107 98 104 102 94 84 81 82 81 88 90 84 75 69 69 69 67 64 65 64 64 64 65 68 73 79 79 78 77 79 82 82 80 76
24 137 128 126 130 114 114 119 99 98 93 93 95 97 111 124 123 118 111 102 93 88 84 80 82 83 86 86 74 69 69 66 65 65 64 66 71 73 74 77 79 81 80 78 78 81 85 81 77
227 149 131 129 134 122 134 132 110 98 114 109 82 70 96 127 137 131 120 110 99 89 84 82 83 83 81 79 84 84 82 74 76 76 67 63 69 73 81 75 81 80 79 78 78 79 83 87 84
163 125 111 108 119 125 136 130 137 145 128 121 113 103 119 138 143 138 129 120 111 103 92 84 89 89 86 80 83 79 79 76 63 63 61 53 57 61 72 87 86 84 84 84 78 81 90 86 84
93 104 112 118 121 129 132 121 135 158 133 129 137 136 140 145 144 140 128 115 107 105 97 91 94 95 90 89 79 70 69 69 64 59 62 61 65 73 76 87 96 93 94 87 91 93 74 71 67
113 99 118 124 129 140 135 123 116 107 73 94 129 141 147 151 152 152 142 128 122 109 105 95 93 96 94 92 86 80 76 70 67 64 63 61 62 63 70 75 76 75 75 76 72 71 73 71 71
131 114 105 116 127 128 120 118 105 95 88 110 129 142 148 151 152 153 147 144 139 137 132 118 110 90 89 90 86 90 81 73 77 68 65 68 67 68 73 76 73 71 74 79 74 70 71 68 64
122 120 117 124 128 128 125 117 130 112 125 130 137 145 149 150 156 157 157 158 159 158 145 140 136 115 117 112 107 91 91 88 76 71 69 74 73 73 73 74 72 71 71 70 74 74 71 68 65
138 134 132 142 150 147 162 144 143 127 147 146 148 147 145 150 162 174 169 174 173 169 160 142 131 129 127 114 105 101 94 90 84 76 71 74 73 75 77 74 78 77 78 77 73 73 69 72 74
169 176 167 143 159 167 205 168 138 151 167 160 159 156 160 161 169 162 169 185 177 174 158 146 150 145 130 125 125 114 102 91 86 79 73 76 78 75 76 76 77 81 85 84 81 74 75 75 70
189 189 178 158 179 186 214 195 154 170 182 173 171 173 173 166 167 158 164 179 186 180 166 160 156 149 138 131 128 113 107 101 91 86 79 75 77 79 83 74 75 83 85 85 84 76 69 73 70
185 189 184 182 173 198 213 217 162 176 193 189 182 184 180 177 172 166 165 173 183 185 169 160 158 158 141 139 139 119 108 104 96 89 82 73 75 77 81 89 87 87 92 91 93 90 79 72 73
211 209 206 186 173 214 224 226 194 182 200 203 196 192 192 189 174 162 163 166 176 183 177 166 169 162 155 151 154 141 140 127 109 93 86 90 93 94 87 85 90 85 84 89 101 100 95 85 80
210 213 209 174 170 227 231 237 214 193 203 207 205 200 200 194 179 168 176 173 183 177 184 179 174 172 165 154 152 151 143 141 120 112 106 105 104 101 98 102 102 107 98 102 100 102 90 77 15
215 225 221 196 172 204 241 228 199 188 199 207 218 215 206 199 194 184 185 182 186 187 190 188 186 178 173 161 149 139 146 162 151 145 131 118 110 114 111 88 103 110 120 105 106 119 101 73 62
221 216 226 215 227 218 239 257 201 199 198 205 211 210 207 200 201 194 191 192 193 195 198 196 188 185 176 171 166 173 185 179 169 159 150 154 140 130 138 130 126 122 105 112 148 101 62 351 60
212 187 211 226 243 248 228 255 208 187 214 212 206 207 206 200 199 198 199 199 197 192 197 202 189 182 179 180 177 192 195 185 165 168 167 172 149 159 167 167 163 157 142 136 100 66 312 323 352
171 180 188 211 234 244 232 247 246 192 226 218 203 202 203 199 196 197 197 200 196 186 189 200 196 182 180 187 187 194 191 187 175 178 183 191 173 185 180 178 194 190 177 164 148 181 204 321 6
204 215 214 212 220 236 173 239 252 63 263 262 236 205 197 193 192 190 190 196 195 191 191 194 195 190 187 192 196 197 198 197 194 189 192 201 199 198 200 196 197 183 175 185 190 210 212 204 229
208 226 245 254 253 241 199 236 182 85 350 290 269 213 187 186 192 194 193 196 196 197 196 195 193 192 192 196 200 200 194 202 203 200 198 208 218 212 200 200 196 189 189 191 190 214 203 213 197
205 214 254 269 262 258 221 221 212 166 203 214 179 170 179 189 196 200 197 198 198 199 199 197 193 190 192 198 199 198 199 203 208 208 206 210 216 208 197 199 196 189 190 198 198 214 207 213 228
237 205 212 236 249 252 239 237 234 186 204 188 195 195 192 192 197 200 198 197 198 199 200 200 199 196 194 201 200 198 206 208 212 211 210 213 208 203 198 196 193 186 186 198 206 218 221 220 203
191 201 219 233 253 264 260 223 63 340 325 270 262 234 199 199 203 200 198 201 198 198 199 202 203 200 201 206 206 200 204 209 208 211 213 214 208 202 203 198 198 193 194 200 198 213 217 231 219
232 225 222 232 230 244 266 257 97 61 349 327 335 328 257 217 206 198 197 197 196 199 203 206 208 204 205 207 207 208 205 205 207 211 215 214 208 206 208 199 199 200 205 209 207 215 219 229 235